DMSP 5D-2 F13 DEB, 42285

Orbit data source: Space-Track

DMSP 5D-2 F13 DEB, 42285 is space debris in SSO originally from a launch on Fri, 24 Mar 1995 UTC launched from the Air Force Western Test Range (AFWTR). Debris objects in space refer to the collection of defunct objects orbiting the Earth. Examples of debris include non-operational satellites, rocket bodies, and fragments generated from explosions, collisions, or faulty payload assembly.

Loading next visibility...
Identifier
42285, 1995-015HB
Orbit
SSO
Country
Flag of USUS
Related business
Manufacturer
Unknown
Mission
Spacecraft
Bus & Motor
Unknown
Mass
Unknown
Launch date (UTC)
1995-03-24 (31 years ago)
Launch vehicle
Unknown
Launch site
Air Force Western Test Range (AFWTR)
Object type
Payload
Rocket body
Debris
Shape & HBR
Unknown shape, 0.1 m
Radar Cross Section
Medium (>0.1 m² and <1 m²)

Expand to show TLE details & history
Last TLE update: 3 days ago

TLE from 3 days ago
0 DMSP 5D-2 F13 DEB
1 42285U 95015HB  26193.86661626  .00001841  00000-0  76551-3 0  9994
2 42285  98.8976 226.3547 0028712 315.4066  44.4804 14.27441411571527
Epoch: 2026-07-12T20:47Z
TLE epoch observation values (Epoch: 2026-07-12T20:47:55.644Z)
Latitude
-0.00007°
Longitude
-16.38647°
Altitude
788.535 km
Speed
7.467 km/s
True Right ascension
15h 05m 25s
True Declination
0° 00' 00"
Sunlit
Object was in daylight at epoch
Visualization orbit readout
Latitude
Unknown
Longitude
Unknown
Altitude
Unknown
Speed
Unknown
Apparent Right ascension
Unknown
Apparent Declination
Unknown
Sunlit
N/A
Visualization observer readout
Local Sidereal Time
05:40:01
Azimuth
Unknown
Elevation
Unknown
Doppler factor
Unknown
Orbital elements
Apogee altitude
818.056 km
Perigee altitude
776.851 km
Semi-major axis
7,175.591 km
Eccentricity
0.00287
Inclination
98.8976°
RAAN
226.3547°
Arg. of periapsis
315.4066°
True anomaly
44.71152°
Mean anomaly
44.4804°
Eccentric anomaly
44.5959°
Mean motion
3.57073 °/min
Orbital period
100.82 mins
BSTAR
0.00076551
Loading maneuver chart data...
Computing Atmospheric mass density...

Documentation

Showing up to 5 results
|